[[{"header":{"parameterUnit":"m.s-1","parameterCategory":1,"la1":30.2991,"la2":30.254,"lo1":-89.0895,"lo2":-89.0444,"dy":0.0017,"dx":0.0017,"nx":28,"ny":28,"refTime":"2024-03-23T09:00:00:Z","depth":0,"parameterNumber":2,"parameterNumberName":"U-component_of_WINDS"},"data":[0,0,0,0,0,0,0,0,0,0,0,0,0,0,0,0,0,0,0,0,0,0,0,0,0,0,0,0,0,0,0,0,0,0,0,0,0,0,0,0,0,0,0,0,0,0,0,0,0,0,0,0,0,0,0,0,0,0,1.2643,1.2643,0,1.2656,1.2656,1.2656,1.2649,1.2648,1.2648,1.2648,1.2659,1.2659,1.266,0,0,0,0,0,0,0,0,0,0,0,0,0,1.2613,1.2613,1.2643,1.2643,1.2643,1.2656,1.2656,1.2656,1.2649,1.2648,1.2648,1.2647,1.2658,1.2659,1.266,0,0,0,0,0,0,0,0,0,0,0,0,0,1.2626,1.2614,1.2643,1.2641,1.2641,1.2656,1.2656,1.2656,1.2649,1.2648,1.2648,1.2647,1.2658,1.2659,1.266,1.2676,0,0,1.2663,1.2663,0,0,0,0,0,0,0,0,1.2625,1.2627,1.2641,1.2641,1.2641,1.265,1.2649,1.2663,1.2649,1.2646,1.2648,1.2647,1.2656,1.2657,1.2661,1.2677,1.2677,1.2663,1.2663,1.2664,1.2664,0,0,0,0,0,0,0,1.2624,1.2626,1.2648,1.2642,1.2642,1.264,1.2641,1.2652,1.2654,1.2646,1.2646,1.2647,1.2656,1.266,1.2661,1.2677,1.2663,1.2664,1.2664,1.2665,1.2709,1.271,0,0,0,0,0,0,1.2623,1.2625,1.2648,1.2648,1.2632,1.2641,1.2642,1.2648,1.2654,1.2654,1.2648,1.2647,1.2658,1.266,1.2661,1.2682,1.2664,1.2665,1.2665,1.2709,1.271,1.271,0,0,0,0,0,0,1.2623,1.2625,1.2647,1.2637,1.2639,1.2642,1.2648,1.2648,1.2652,1.2655,1.2655,1.2651,1.2658,1.266,1.2673,1.2682,1.2665,1.2666,1.2708,1.2709,1.271,1.2722,0,0,0,0,0,0,1.2622,1.2625,1.2631,1.2637,1.264,1.2659,1.2649,1.2649,1.2654,1.2653,1.2658,1.2658,1.2658,1.2672,1.2674,1.2683,1.2667,1.2707,1.2709,1.271,1.2721,1.2723,1.2725,0,0,0,0,0,1.2621,1.2633,1.2631,1.2634,1.2648,1.2659,1.2661,1.266,1.2655,1.2661,1.2663,1.2658,1.2681,1.2673,1.2676,1.2685,1.2707,1.2708,1.271,1.272,1.2723,1.2725,0,0,0,0,0,0,1.2627,1.2634,1.2632,1.2647,1.2653,1.2658,1.2665,1.2663,1.267,1.2669,1.2668,1.2669,1.2683,1.2685,1.2677,1.2702,1.2693,1.2695,1.27,1.2702,1.2705,1.2703,1.2668,0,0,0,0,0,1.263,1.2639,1.2645,1.2657,1.266,1.2663,1.2668,1.2667,1.2673,1.2675,1.2678,1.2684,1.2692,1.2697,1.2705,1.2721,1.2723,1.2729,1.2731,1.2733,1.2735,1.2745,1.2748,1.2715,1.2715,1.2715,0,0,1.2636,1.2641,1.2647,1.2659,1.2663,1.2673,1.2665,1.2675,1.2682,1.2676,1.2689,1.2692,1.2698,1.2714,1.272,1.2716,1.2744,1.2735,1.2736,1.2737,1.2747,1.275,1.2752,1.2716,1.2716,1.2716,0,0,1.2653,1.2657,1.2669,1.2674,1.2682,1.2684,1.2687,1.2693,1.2695,1.2709,1.2705,1.2714,1.2728,1.2733,1.2737,1.2759,1.2755,1.2762,1.2773,1.2783,1.2786,1.2788,1.2796,1.2799,1.2763,1.2763,1.2763,0,1.2659,1.2674,1.2675,1.2686,1.2692,1.2689,1.2701,1.2706,1.2715,1.2719,1.2715,1.2734,1.2738,1.2755,1.276,1.2764,1.2768,1.2761,1.2785,1.2788,1.279,1.2798,1.2801,1.2764,1.2764,1.2764,1.2764,0,1.2682,1.2693,1.2701,1.2712,1.2719,1.273,1.2733,1.274,1.2739,1.2742,1.2757,1.2762,1.2771,1.2775,1.2774,1.2793,1.279,1.2785,1.2776,1.2794,1.2801,1.2804,1.2765,1.2765,1.2765,1.2765,0,0,1.27,1.2714,1.2717,1.2722,1.2732,1.274,1.2752,1.2763,1.2769,1.2776,1.2786,1.28,1.2797,1.2802,1.2802,1.281,1.2828,1.2805,1.2805,1.2809,1.285,1.2854,1.2857,1.2827,1.2827,1.2828,1.285,0,1.2718,1.2739,1.2742,1.2761,1.2771,1.277,1.2781,1.2788,1.2791,1.2801,1.2804,1.2814,1.2808,1.2812,1.2821,1.2824,1.2837,1.2823,1.2836,1.2837,1.2834,1.2861,1.2864,1.2884,1.2853,1.2853,1.2854,0,1.274,1.275,1.277,1.2781,1.2785,1.2794,1.2805,1.2814,1.2823,1.2825,1.2832,1.2832,1.2845,1.2836,1.2855,1.2845,1.2851,1.2854,1.2855,1.2856,1.2846,1.2862,1.2891,1.2894,1.2858,1.2858,1.2857,0,1.2752,1.277,1.2785,1.279,1.2802,1.2809,1.2814,1.2823,1.283,1.2839,1.2844,1.2855,1.2861,1.2869,1.2872,1.2865,1.289,1.2882,1.2893,1.2893,1.2897,1.2897,1.2927,1.2901,1.2901,1.2901,1.2901,0,1.2771,1.2783,1.2791,1.28,1.2815,1.2818,1.2833,1.2838,1.2846,1.2856,1.2856,1.2866,1.2869,1.288,1.2882,1.2897,1.29,1.2902,1.2902,1.2902,1.2902,1.2905,1.2904,1.2902,1.2902,1.2902,1.2902,0,1.2786,1.2791,1.2808,1.2819,1.2822,1.2832,1.2842,1.2851,1.2856,1.2869,1.2872,1.2879,1.2892,1.2896,1.2911,1.2912,1.2931,1.293,1.2928,1.2928,1.2938,1.2937,1.2972,1.2977,1.2948,1.2948,1.2949,0,1.2797,1.2807,1.282,1.2827,1.2833,1.2845,1.2853,1.2857,1.2865,1.2878,1.2886,1.2899,1.2909,1.293,1.2936,1.2948,1.2947,1.2958,1.2949,1.2948,1.2947,1.2947,1.2948,1.296,1.296,1.296,1.2961,0,1.2816,1.2819,1.2831,1.2844,1.2854,1.2864,1.2874,1.288,1.2886,1.2895,1.2909,1.2917,1.2934,1.2947,1.2959,1.2965,1.2964,1.2964,1.2967,1.2966,1.2965,1.2966,1.2933,1.2963,1.2963,1.2962,1.2962,1.2962,1.283,1.2839,1.2851,1.2864,1.2873,1.2882,1.2892,1.2899,1.2911,1.2925,1.2927,1.2942,1.2953,1.297,1.2976,1.2988,1.2985,1.2989,1.299,1.2991,1.2993,1.2964,1.2991,1.299,1.299,1.299,1.299,0,1.285,1.2858,1.287,1.2885,1.2896,1.2896,1.2907,1.2916,1.293,1.294,1.2951,1.2968,1.2981,1.299,1.3003,1.3011,1.3011,1.3015,1.3014,1.3015,1.2994,1.2991,1.3014,1.3014,1.3014,1.3014,1.3014,1.3014,1.2861,1.2878,1.2883,1.2904,1.2912,1.2927,1.2934,1.2944,1.2952,1.2971,1.2983,1.2989,1.2999,1.3014,1.3026,1.3028,1.3033,1.3037,1.3039,1.3019,1.3016,1.3014,1.301,1.3038,1.3038,1.3059,1.3059,1.3059]},{"header":{"parameterUnit":"m.s-1","parameterCategory":1,"la1":30.2991,"la2":30.254,"lo1":-89.0895,"lo2":-89.0444,"dy":0.0017,"dx":0.0017,"nx":28,"ny":28,"refTime":"2024-03-23T09:00:00:Z","depth":0,"parameterNumber":3,"parameterNumberName":"V-component_of_WINDS"},"data":[0,0,0,0,0,0,0,0,0,0,0,0,0,0,0,0,0,0,0,0,0,0,0,0,0,0,0,0,0,0,0,0,0,0,0,0,0,0,0,0,0,0,0,0,0,0,0,0,0,0,0,0,0,0,0,0,0,0,-5.5496,-5.5497,0,-5.556,-5.5561,-5.5562,-5.5523,-5.5522,-5.552,-5.5518,-5.558,-5.5583,-5.5586,0,0,0,0,0,0,0,0,0,0,0,0,0,-5.5338,-5.5341,-5.5496,-5.5497,-5.5498,-5.556,-5.5561,-5.5562,-5.5524,-5.5522,-5.5519,-5.5517,-5.5579,-5.5582,-5.5587,0,0,0,0,0,0,0,0,0,0,0,0,0,-5.5405,-5.5342,-5.5496,-5.5486,-5.5486,-5.556,-5.5561,-5.5562,-5.5524,-5.5522,-5.5519,-5.5516,-5.5577,-5.5582,-5.5587,-5.5673,0,0,-5.5602,-5.5605,0,0,0,0,0,0,0,0,-5.5401,-5.5411,-5.5487,-5.5487,-5.5487,-5.5531,-5.5528,-5.5599,-5.5525,-5.551,-5.5518,-5.5515,-5.5565,-5.5571,-5.5589,-5.5675,-5.5678,-5.5603,-5.5606,-5.5608,-5.5609,0,0,0,0,0,0,0,-5.5397,-5.5408,-5.5521,-5.5488,-5.5488,-5.5478,-5.5484,-5.5541,-5.5552,-5.5511,-5.5508,-5.5516,-5.5565,-5.5584,-5.559,-5.5679,-5.5603,-5.5607,-5.561,-5.5612,-5.5841,-5.5843,0,0,0,0,0,0,-5.5393,-5.5404,-5.5519,-5.5523,-5.5437,-5.5483,-5.549,-5.552,-5.5551,-5.5554,-5.5519,-5.5514,-5.5577,-5.5584,-5.5592,-5.5696,-5.5608,-5.5613,-5.5615,-5.5837,-5.5841,-5.5844,0,0,0,0,0,0,-5.539,-5.5404,-5.5517,-5.5463,-5.5477,-5.5489,-5.5522,-5.5522,-5.5542,-5.5557,-5.5559,-5.5537,-5.5575,-5.5585,-5.5654,-5.5697,-5.5615,-5.5619,-5.5834,-5.5839,-5.5843,-5.5903,0,0,0,0,0,0,-5.5385,-5.5403,-5.5436,-5.5464,-5.548,-5.5578,-5.5525,-5.5526,-5.5551,-5.5546,-5.5575,-5.5577,-5.5574,-5.5646,-5.5659,-5.5703,-5.5623,-5.583,-5.5836,-5.5841,-5.5897,-5.5909,-5.5919,0,0,0,0,0,-5.538,-5.5449,-5.5438,-5.5452,-5.5521,-5.558,-5.5589,-5.5586,-5.5555,-5.5588,-5.5598,-5.5576,-5.5691,-5.5654,-5.5667,-5.5713,-5.5827,-5.5834,-5.5841,-5.5892,-5.5907,-5.5919,0,0,0,0,0,0,-5.5423,-5.5452,-5.544,-5.552,-5.5549,-5.5574,-5.5615,-5.5601,-5.5637,-5.5631,-5.5623,-5.563,-5.5702,-5.5714,-5.5673,-5.5799,-5.5754,-5.5764,-5.5788,-5.5802,-5.5813,-5.5809,-5.5627,0,0,0,0,0,-5.5442,-5.5489,-5.5511,-5.558,-5.5595,-5.5603,-5.5628,-5.5624,-5.5652,-5.5663,-5.5678,-5.5705,-5.5748,-5.5775,-5.5815,-5.5899,-5.5905,-5.5937,-5.5948,-5.5957,-5.5966,-5.6013,-5.6028,-5.5867,-5.5867,-5.5867,0,0,-5.5482,-5.5503,-5.5533,-5.5589,-5.561,-5.5658,-5.5613,-5.5665,-5.57,-5.567,-5.5737,-5.5749,-5.5779,-5.5856,-5.589,-5.5868,-5.6012,-5.5966,-5.5973,-5.5977,-5.6021,-5.6036,-5.605,-5.5872,-5.5871,-5.587,0,0,-5.5578,-5.5599,-5.566,-5.5683,-5.5716,-5.5722,-5.5736,-5.5765,-5.5772,-5.5839,-5.5818,-5.5859,-5.5932,-5.5955,-5.5976,-5.6084,-5.6065,-5.6097,-5.6155,-5.62,-5.6213,-5.6224,-5.6264,-5.6278,-5.6106,-5.6106,-5.6106,0,-5.5623,-5.5695,-5.5692,-5.5747,-5.5773,-5.575,-5.5811,-5.5833,-5.5877,-5.5895,-5.587,-5.5963,-5.5981,-5.6064,-5.609,-5.6108,-5.6124,-5.6094,-5.6212,-5.6223,-5.6233,-5.6271,-5.6286,-5.611,-5.6109,-5.6109,-5.6108,0,-5.5749,-5.58,-5.5844,-5.589,-5.5921,-5.5978,-5.5983,-5.6015,-5.6008,-5.6016,-5.6085,-5.6106,-5.6151,-5.617,-5.6163,-5.6253,-5.6238,-5.6213,-5.6167,-5.6252,-5.6288,-5.6302,-5.6115,-5.6114,-5.6112,-5.6112,0,0,-5.5873,-5.5919,-5.5935,-5.5956,-5.5993,-5.6031,-5.6088,-5.6134,-5.6161,-5.6193,-5.624,-5.6304,-5.6281,-5.6305,-5.6301,-5.6341,-5.6427,-5.631,-5.6311,-5.6332,-5.6528,-5.6547,-5.6564,-5.6414,-5.6417,-5.6419,-5.6526,0,-5.5973,-5.6074,-5.6074,-5.6167,-5.6214,-5.6194,-5.6244,-5.6271,-5.6281,-5.6322,-5.6331,-5.6377,-5.6343,-5.6358,-5.6397,-5.6408,-5.6466,-5.64,-5.6458,-5.6461,-5.6452,-5.6582,-5.6602,-5.6702,-5.6539,-5.6542,-5.6543,0,-5.6102,-5.6141,-5.6239,-5.6271,-5.6291,-5.6335,-5.6378,-5.6418,-5.6449,-5.6453,-5.6481,-5.6471,-5.6528,-5.6482,-5.6562,-5.6517,-5.6541,-5.655,-5.6554,-5.6559,-5.6507,-5.6592,-5.6733,-5.6749,-5.6565,-5.6563,-5.6562,0,-5.6184,-5.626,-5.633,-5.6348,-5.6387,-5.6419,-5.6436,-5.6465,-5.6493,-5.653,-5.6548,-5.6591,-5.6614,-5.6647,-5.6648,-5.6614,-5.6729,-5.6682,-5.6734,-5.6734,-5.6759,-5.6757,-5.6907,-5.6774,-5.6773,-5.6773,-5.6773,0,-5.6296,-5.6357,-5.6368,-5.641,-5.6478,-5.6478,-5.6545,-5.6559,-5.6585,-5.663,-5.6615,-5.6657,-5.6656,-5.6699,-5.67,-5.6767,-5.6777,-5.6781,-5.6781,-5.6783,-5.6783,-5.6799,-5.6792,-5.6777,-5.6776,-5.6776,-5.6775,0,-5.6398,-5.6408,-5.6483,-5.6514,-5.6523,-5.6572,-5.6599,-5.6639,-5.6648,-5.6705,-5.6718,-5.6732,-5.6782,-5.6787,-5.6844,-5.6845,-5.6925,-5.6917,-5.6916,-5.6914,-5.6966,-5.6962,-5.7131,-5.7154,-5.7006,-5.7007,-5.7008,0,-5.6469,-5.6516,-5.6554,-5.6584,-5.6603,-5.6651,-5.6681,-5.6682,-5.6713,-5.6754,-5.679,-5.6838,-5.6878,-5.6958,-5.6972,-5.7016,-5.7009,-5.7066,-5.7016,-5.7017,-5.7011,-5.7009,-5.7014,-5.7076,-5.7077,-5.7079,-5.708,0,-5.6594,-5.6597,-5.6641,-5.6687,-5.6724,-5.676,-5.6793,-5.6818,-5.6824,-5.686,-5.6912,-5.6943,-5.7003,-5.7051,-5.7095,-5.7112,-5.7097,-5.7096,-5.711,-5.7113,-5.711,-5.7113,-5.6943,-5.7092,-5.709,-5.7089,-5.7089,-5.7088,-5.6683,-5.6725,-5.6759,-5.6809,-5.6835,-5.6867,-5.6908,-5.6923,-5.6967,-5.7017,-5.7015,-5.7073,-5.7104,-5.7162,-5.7182,-5.7227,-5.7208,-5.7228,-5.7234,-5.7239,-5.7245,-5.7104,-5.7234,-5.7234,-5.7234,-5.7233,-5.7233,0,-5.6808,-5.6829,-5.6875,-5.6925,-5.6964,-5.6949,-5.6986,-5.702,-5.7072,-5.7103,-5.7143,-5.7203,-5.7251,-5.727,-5.7317,-5.7349,-5.7344,-5.7361,-5.7359,-5.7363,-5.7258,-5.7242,-5.7365,-5.7365,-5.7365,-5.7365,-5.7365,-5.7365,-5.6877,-5.6948,-5.6956,-5.7039,-5.706,-5.7118,-5.7141,-5.7171,-5.7196,-5.7265,-5.7306,-5.7319,-5.7345,-5.7394,-5.7437,-5.7442,-5.746,-5.7481,-5.7482,-5.7384,-5.7371,-5.7358,-5.7342,-5.7485,-5.7485,-5.7584,-5.7585,-5.7585]}]]